sat.trackr.live / text

‹ back to catalog

STARLINK-36211

NORAD 67218 · 2025-304AC

PAYLOAD ACTIVE UNKNOWN

§ Identity

Operator
Country
US
Launch date
2025-12-17
Launch site
AFWTR
Launch vehicle
Mass (kg)
RCS (m²)

Purposes: comms

External: N2YO · Heavens-Above · Gunter

§ Orbital elements

Epoch: 2026-09-19T18:00:50.615712Z

Period
96.11 min
Inclination
70.0014°
Eccentricity
0.0003178
Mean motion
14.98321730 rev/d
Perigee alt
569.9 km
Apogee alt
574.3 km
Semi-major
6,950.2 km
B*
-2.8043e-5
RAAN
45.1322°
Arg perigee
271.8646°
Mean anomaly
88.2149°
Rev number
4,292

§ Raw data

STARLINK-362111 67218U 25304AC  26262.75058583 -.00000428  00000+0 -28043-4 0  99932 67218  70.0014  45.1322 0003178 271.8646  88.2149 14.98321730 42925

JSON: /api/v1/satellites/67218 · /tle

For live sub-satellite position, see the globe view (requires WebGL).

§ Visibility from observer

Set your observer location to see the next 7 days of passes ≥ 10°. The values pass through the URL so the page stays shareable.

No JS? Fill the form by hand. The geolocation button needs JavaScript.